Weather in Ertil

Russia / Voronezh Oblast     51°50′08″N   40°47′57″E
temp.,
°C
wind,
m/s
gust,
m/s
humid.,
%
clouds,
%
prec.,
mm/h
press.,
hPa
HPBL,
m
25 february, thu
thu2500:00−15s599597 0.4 1036346
03:00−13ssw5109498 0.8 1034395
06:00−12ssw61194100 0.3 1031411
09:00−9sw71194100 0.6 1028418
12:00−6sw71295100 1.1 1025424
15:00−3sw71295100 1.4 1021384
18:000wsw71496100 1.1 1018465
21:00+1w51099100 1.5 1018267
26 february, fri
fri2600:00+1w51099100 0.0 1017279
03:00+1wnw51199100 0.1 1018291
06:00+1w4999100 0.1 1017247
09:00+1w41099100 0.6 1017263
12:00+2w511100100 0.0 1015268
15:00+2wsw614100100 0.0 1014382
18:00+2w61499100 0.3 1012383
21:00+2wsw71698100 0.5 1011428
27 february, sat
sat2700:00+2w61496100 0.1 1009504
03:00+1w61294100 0.1 1009383
06:00+1w61295100 0.0 1007483
09:00+1w61198100 0.1 1007578
12:00+1w611100100 0.0 1007582
15:00+1w61199100 0.1 1007492
18:00+1wnw61197100 0.2 1006534
21:000wnw61195100 0.2 1007562
28 february, sun
sun2800:000wnw51097100 0.1 1008531
03:00−3nnw489499 0.4 1010321
06:00−6n5118899 0.0 1012493
09:00−7n598694 0.0 1014520
12:00−6nnw578750 0.0 1015584
15:00−5nnw578775 0.1 1017644
18:00−5nnw5889100 0.1 1018631
21:00−6n4890100 0.1 1021638
1 march, mon
mon100:00−6nnw379595 0.1 1022532
03:00−7nnw489493 0.2 1023348
06:00−8nnw499440 0.0 1025377
09:00−8n599056 0.0 1027503
12:00−6n488669 0.0 1028586
15:00−5nnw468880 0.0 1029592
18:00−6nw359299 0.0 1029188
21:00−7wnw349493 0.0 103096